Time,TemperatureF,DewpointF,PressureIn,WindDirection,WindDirectionDegrees,WindSpeedMPH,WindSpeedGustMPH,Humidity,HourlyPrecipIn,Conditions,Clouds,dailyrainin,SoftwareType,DateUTC
2013-02-06 00:00:00,27.1,24.3,30.12,NNW,337,0.0,0.0,89,0.00,,,0.00,WUHU21636XXSP,2013-02-06 06:00:00,
2013-02-06 00:05:00,26.8,23.9,30.12,NNW,337,0.0,0.0,89,0.00,,,0.00,WUHU21636XXSP,2013-02-06 06:05:00,
2013-02-06 00:10:00,26.6,23.7,30.11,NNW,337,0.0,0.0,89,0.00,,,0.00,WUHU21636XXSP,2013-02-06 06:10:00,
2013-02-06 00:15:00,27.0,24.4,30.11,NNW,337,0.0,0.0,90,0.00,,,0.00,WUHU21636XXSP,2013-02-06 06:15:00,
2013-02-06 00:20:00,26.4,23.9,30.12,NNW,337,0.0,0.0,90,0.00,,,0.00,WUHU21636XXSP,2013-02-06 06:20:00,
2013-02-06 00:25:00,26.2,23.7,30.12,NNW,337,0.0,0.0,90,0.00,,,0.00,WUHU21636XXSP,2013-02-06 06:25:00,
2013-02-06 00:30:00,26.4,23.9,30.12,NNW,337,0.0,0.0,90,0.00,,,0.00,WUHU21636XXSP,2013-02-06 06:30:00,
2013-02-06 00:35:00,26.4,23.9,30.13,NNW,337,0.0,0.0,90,0.00,,,0.00,WUHU21636XXSP,2013-02-06 06:35:00,
2013-02-06 00:40:00,26.4,24.1,30.13,NNW,337,0.0,0.0,91,0.00,,,0.00,WUHU21636XXSP,2013-02-06 06:40:00,
2013-02-06 00:45:00,26.2,23.7,30.12,NNW,337,0.0,0.0,90,0.00,,,0.00,WUHU21636XXSP,2013-02-06 06:45:00,
2013-02-06 00:50:00,26.2,23.7,30.12,NNW,337,0.0,0.0,91,0.00,,,0.00,WUHU21636XXSP,2013-02-06 06:50:00,
2013-02-06 00:57:00,26.2,23.7,30.12,NNW,337,0.0,0.0,91,0.00,,,0.00,WUHU21636XXSP,2013-02-06 06:57:00,
2013-02-06 01:02:00,26.2,23.9,30.12,NNW,337,0.0,0.0,91,0.00,,,0.00,WUHU21636XXSP,2013-02-06 07:02:00,
2013-02-06 01:07:00,25.9,23.5,30.13,NNW,337,0.0,0.0,91,0.00,,,0.00,WUHU21636XXSP,2013-02-06 07:07:00,
2013-02-06 01:12:00,25.9,23.5,30.13,NNW,337,0.0,0.0,91,0.00,,,0.00,WUHU21636XXSP,2013-02-06 07:12:00,
2013-02-06 01:17:00,26.4,24.3,30.13,NNW,337,0.0,0.0,92,0.00,,,0.00,WUHU21636XXSP,2013-02-06 07:17:00,
2013-02-06 01:22:00,27.3,25.2,30.13,NNW,337,0.0,0.0,92,0.00,,,0.00,WUHU21636XXSP,2013-02-06 07:22:00,
2013-02-06 01:27:00,27.3,25.2,30.13,NNW,337,0.0,0.0,92,0.00,,,0.00,WUHU21636XXSP,2013-02-06 07:27:00,
2013-02-06 01:32:00,27.1,25.0,30.14,NNW,337,0.0,0.0,92,0.00,,,0.00,WUHU21636XXSP,2013-02-06 07:32:00,
2013-02-06 01:38:00,26.8,24.6,30.14,NNW,337,0.0,0.0,92,0.00,,,0.00,WUHU21636XXSP,2013-02-06 07:38:00,
2013-02-06 01:43:00,26.4,24.3,30.14,NNW,337,0.0,0.0,92,0.00,,,0.00,WUHU21636XXSP,2013-02-06 07:43:00,
2013-02-06 01:48:00,26.4,24.3,30.14,NNW,337,0.0,0.0,92,0.00,,,0.00,WUHU21636XXSP,2013-02-06 07:48:00,
2013-02-06 01:53:00,26.2,24.1,30.14,NNW,337,0.0,0.0,92,0.00,,,0.00,WUHU21636XXSP,2013-02-06 07:53:00,
2013-02-06 01:58:00,26.2,24.1,30.15,NNW,337,0.0,0.0,92,0.00,,,0.00,WUHU21636XXSP,2013-02-06 07:58:00,
2013-02-06 02:03:00,26.2,24.1,30.15,NNW,337,0.0,0.0,92,0.00,,,0.00,WUHU21636XXSP,2013-02-06 08:03:00,
2013-02-06 02:08:00,26.2,24.1,30.16,NNW,337,0.0,0.0,92,0.00,,,0.00,WUHU21636XXSP,2013-02-06 08:08:00,
2013-02-06 02:13:00,26.2,24.1,30.16,NNW,337,0.0,0.0,92,0.00,,,0.00,WUHU21636XXSP,2013-02-06 08:13:00,
2013-02-06 02:18:00,26.4,24.3,30.16,NNW,337,0.0,0.0,92,0.00,,,0.00,WUHU21636XXSP,2013-02-06 08:18:00,
2013-02-06 02:23:00,27.3,25.5,30.16,NNW,337,0.0,0.0,93,0.00,,,0.00,WUHU21636XXSP,2013-02-06 08:23:00,
2013-02-06 02:28:00,27.3,25.5,30.17,NNW,337,0.0,0.0,93,0.00,,,0.00,WUHU21636XXSP,2013-02-06 08:28:00,
2013-02-06 02:33:00,27.5,25.7,30.16,NNW,337,0.0,0.0,92,0.00,,,0.00,WUHU21636XXSP,2013-02-06 08:33:00,
2013-02-06 02:38:00,27.5,25.7,30.16,NNW,337,0.0,0.0,92,0.00,,,0.00,WUHU21636XXSP,2013-02-06 08:38:00,
2013-02-06 02:43:00,27.1,25.0,30.16,NNW,337,0.0,0.0,92,0.00,,,0.00,WUHU21636XXSP,2013-02-06 08:43:00,
2013-02-06 02:48:00,27.1,25.3,30.16,NNW,337,0.0,0.0,93,0.00,,,0.00,WUHU21636XXSP,2013-02-06 08:48:00,
2013-02-06 02:53:00,27.0,24.8,30.16,NNW,337,0.0,0.0,92,0.00,,,0.00,WUHU21636XXSP,2013-02-06 08:53:00,
2013-02-06 02:58:00,26.8,24.6,30.16,NNW,337,0.0,0.0,92,0.00,,,0.00,WUHU21636XXSP,2013-02-06 08:58:00,
2013-02-06 03:05:00,26.4,24.6,30.16,NNW,337,0.0,0.0,93,0.00,,,0.00,WUHU21636XXSP,2013-02-06 09:05:00,
2013-02-06 03:10:00,25.9,23.7,30.16,NNW,337,0.0,0.0,92,0.00,,,0.00,WUHU21636XXSP,2013-02-06 09:10:00,
2013-02-06 03:15:00,25.7,23.5,30.16,NNW,337,0.0,0.0,92,0.00,,,0.00,WUHU21636XXSP,2013-02-06 09:15:00,
2013-02-06 03:20:00,25.5,23.4,30.16,NNW,337,0.0,0.0,92,0.00,,,0.00,WUHU21636XXSP,2013-02-06 09:20:00,
2013-02-06 03:25:00,25.9,24.1,30.16,NNW,337,0.0,0.0,93,0.00,,,0.00,WUHU21636XXSP,2013-02-06 09:25:00,
2013-02-06 03:30:00,25.5,23.7,30.16,NNW,337,0.0,0.0,93,0.00,,,0.00,WUHU21636XXSP,2013-02-06 09:30:00,
2013-02-06 03:35:00,25.3,23.5,30.16,NNW,337,0.0,0.0,93,0.00,,,0.00,WUHU21636XXSP,2013-02-06 09:35:00,
2013-02-06 03:40:00,25.2,23.4,30.16,NNW,337,0.0,0.0,93,0.00,,,0.00,WUHU21636XXSP,2013-02-06 09:40:00,
2013-02-06 03:45:00,25.3,23.5,30.16,NNW,337,0.0,0.0,93,0.00,,,0.00,WUHU21636XXSP,2013-02-06 09:45:00,
2013-02-06 03:50:00,25.0,22.8,30.16,NNW,337,0.0,0.0,92,0.00,,,0.00,WUHU21636XXSP,2013-02-06 09:50:00,
2013-02-06 03:55:00,25.0,22.8,30.16,NNW,337,0.0,0.0,93,0.00,,,0.00,WUHU21636XXSP,2013-02-06 09:55:00,
2013-02-06 04:00:00,25.2,23.4,30.16,NNW,337,0.0,0.0,93,0.00,,,0.00,WUHU21636XXSP,2013-02-06 10:00:00,
2013-02-06 04:05:00,25.0,23.2,30.16,NNW,337,0.0,0.0,93,0.00,,,0.00,WUHU21636XXSP,2013-02-06 10:05:00,
2013-02-06 04:10:00,24.4,22.6,30.15,NNW,337,0.0,0.0,93,0.00,,,0.00,WUHU21636XXSP,2013-02-06 10:10:00,
2013-02-06 04:15:00,24.8,23.0,30.15,NNW,337,0.0,0.0,93,0.00,,,0.00,WUHU21636XXSP,2013-02-06 10:15:00,
2013-02-06 04:20:00,24.6,22.8,30.15,NNW,337,0.0,0.0,93,0.00,,,0.00,WUHU21636XXSP,2013-02-06 10:20:00,
2013-02-06 04:25:00,24.4,22.6,30.15,NNW,337,0.0,0.0,92,0.00,,,0.00,WUHU21636XXSP,2013-02-06 10:25:00,
2013-02-06 04:30:00,24.1,22.3,30.15,NNW,337,0.0,0.0,93,0.00,,,0.00,WUHU21636XXSP,2013-02-06 10:30:00,
2013-02-06 04:35:00,23.9,21.7,30.15,NNW,337,0.0,0.0,92,0.00,,,0.00,WUHU21636XXSP,2013-02-06 10:35:00,
2013-02-06 04:40:00,23.5,21.4,30.16,NNW,337,0.0,0.0,92,0.00,,,0.00,WUHU21636XXSP,2013-02-06 10:40:00,
2013-02-06 04:45:00,23.7,21.9,30.16,NNW,337,0.0,0.0,93,0.00,,,0.00,WUHU21636XXSP,2013-02-06 10:45:00,
2013-02-06 04:50:00,23.7,21.9,30.16,NNW,337,0.0,0.0,93,0.00,,,0.00,WUHU21636XXSP,2013-02-06 10:50:00,
2013-02-06 04:55:00,23.9,22.1,30.16,NNW,337,0.0,0.0,93,0.00,,,0.00,WUHU21636XXSP,2013-02-06 10:55:00,
2013-02-06 05:00:00,24.3,22.5,30.16,NNW,337,0.0,0.0,93,0.00,,,0.00,WUHU21636XXSP,2013-02-06 11:00:00,
2013-02-06 05:05:00,23.7,21.9,30.17,NNW,337,0.0,0.0,93,0.00,,,0.00,WUHU21636XXSP,2013-02-06 11:05:00,
2013-02-06 05:10:00,23.7,21.9,30.17,NNW,337,0.0,0.0,93,0.00,,,0.00,WUHU21636XXSP,2013-02-06 11:10:00,
2013-02-06 05:15:00,23.5,21.7,30.18,NNW,337,0.0,0.0,93,0.00,,,0.00,WUHU21636XXSP,2013-02-06 11:15:00,
2013-02-06 05:20:00,23.4,21.6,30.18,NNW,337,0.0,0.0,93,0.00,,,0.00,WUHU21636XXSP,2013-02-06 11:20:00,
2013-02-06 05:25:00,23.2,21.4,30.18,NNW,337,0.0,0.0,93,0.00,,,0.00,WUHU21636XXSP,2013-02-06 11:25:00,
2013-02-06 05:30:00,23.2,21.4,30.18,NNW,337,0.0,0.0,93,0.00,,,0.00,WUHU21636XXSP,2013-02-06 11:30:00,
2013-02-06 05:35:00,22.8,21.0,30.19,NNW,337,0.0,0.0,93,0.00,,,0.00,WUHU21636XXSP,2013-02-06 11:35:00,
2013-02-06 05:40:00,22.8,21.0,30.19,NNW,337,0.0,0.0,93,0.00,,,0.00,WUHU21636XXSP,2013-02-06 11:40:00,
2013-02-06 05:45:00,23.2,21.4,30.19,NNW,337,0.0,0.0,93,0.00,,,0.00,WUHU21636XXSP,2013-02-06 11:45:00,
2013-02-06 05:50:00,23.5,21.7,30.19,NNW,337,0.0,0.0,93,0.00,,,0.00,WUHU21636XXSP,2013-02-06 11:50:00,
2013-02-06 05:55:00,23.5,21.7,30.18,NNW,337,0.0,0.0,93,0.00,,,0.00,WUHU21636XXSP,2013-02-06 11:55:00,
2013-02-06 06:00:00,23.5,21.7,30.18,NNW,337,0.0,0.0,93,0.00,,,0.00,WUHU21636XXSP,2013-02-06 12:00:00,
2013-02-06 06:05:00,23.7,22.1,30.18,NNW,337,0.0,0.0,93,0.00,,,0.00,WUHU21636XXSP,2013-02-06 12:05:00,
2013-02-06 06:10:00,23.5,21.7,30.19,NNW,337,0.0,0.0,93,0.00,,,0.00,WUHU21636XXSP,2013-02-06 12:10:00,
2013-02-06 06:15:00,23.0,21.2,30.18,NNW,337,0.0,0.0,93,0.00,,,0.00,WUHU21636XXSP,2013-02-06 12:15:00,
2013-02-06 06:20:00,23.0,21.2,30.19,NNW,337,0.0,0.0,93,0.00,,,0.00,WUHU21636XXSP,2013-02-06 12:20:00,
2013-02-06 06:25:00,23.2,21.4,30.19,NNW,337,0.0,0.0,93,0.00,,,0.00,WUHU21636XXSP,2013-02-06 12:25:00,
2013-02-06 06:30:00,23.4,21.6,30.19,NNW,337,0.0,0.0,93,0.00,,,0.00,WUHU21636XXSP,2013-02-06 12:30:00,
2013-02-06 06:35:00,23.5,21.9,30.19,NNW,337,0.0,0.0,94,0.00,,,0.00,WUHU21636XXSP,2013-02-06 12:35:00,
2013-02-06 06:40:00,23.5,21.9,30.19,NNW,337,0.0,0.0,94,0.00,,,0.00,WUHU21636XXSP,2013-02-06 12:40:00,
2013-02-06 06:45:00,23.4,21.7,30.19,NNW,337,0.0,0.0,94,0.00,,,0.00,WUHU21636XXSP,2013-02-06 12:45:00,
2013-02-06 06:50:00,23.2,21.6,30.19,NNW,337,0.0,0.0,93,0.00,,,0.00,WUHU21636XXSP,2013-02-06 12:50:00,
2013-02-06 06:55:00,22.6,20.8,30.19,NNW,337,0.0,0.0,93,0.00,,,0.00,WUHU21636XXSP,2013-02-06 12:55:00,
2013-02-06 07:00:00,22.5,20.7,30.20,NNW,337,0.0,0.0,93,0.00,,,0.00,WUHU21636XXSP,2013-02-06 13:00:00,
2013-02-06 07:05:00,22.6,20.8,30.20,NNW,337,0.0,0.0,93,0.00,,,0.00,WUHU21636XXSP,2013-02-06 13:05:00,
2013-02-06 07:10:00,22.6,20.8,30.20,NNW,337,0.0,0.0,93,0.00,,,0.00,WUHU21636XXSP,2013-02-06 13:10:00,
2013-02-06 07:15:00,23.0,21.2,30.20,NNW,337,0.0,0.0,93,0.00,,,0.00,WUHU21636XXSP,2013-02-06 13:15:00,
2013-02-06 07:20:00,23.2,21.4,30.20,NNW,337,0.0,0.0,93,0.00,,,0.00,WUHU21636XXSP,2013-02-06 13:20:00,
2013-02-06 07:25:00,23.5,21.7,30.20,NNW,337,0.0,0.0,93,0.00,,,0.00,WUHU21636XXSP,2013-02-06 13:25:00,
2013-02-06 07:30:00,24.1,22.3,30.20,NNW,337,0.0,0.0,93,0.00,,,0.00,WUHU21636XXSP,2013-02-06 13:30:00,
2013-02-06 07:35:00,24.4,22.6,30.19,NNW,337,0.0,0.0,93,0.00,,,0.00,WUHU21636XXSP,2013-02-06 13:35:00,
2013-02-06 07:40:00,25.2,23.4,30.19,NNW,337,0.0,0.0,93,0.00,,,0.00,WUHU21636XXSP,2013-02-06 13:40:00,
2013-02-06 07:45:00,26.8,25.0,30.19,NNW,337,0.0,0.0,93,0.00,,,0.00,WUHU21636XXSP,2013-02-06 13:45:00,
2013-02-06 07:50:00,29.1,27.3,30.20,NNW,337,0.0,0.0,93,0.00,,,0.00,WUHU21636XXSP,2013-02-06 13:50:00,
2013-02-06 07:55:00,30.7,28.9,30.20,NNW,337,0.0,0.0,93,0.00,,,0.00,WUHU21636XXSP,2013-02-06 13:55:00,
2013-02-06 08:00:00,32.7,30.6,30.20,NNW,337,0.0,0.0,92,0.00,,,0.00,WUHU21636XXSP,2013-02-06 14:00:00,
2013-02-06 08:05:00,34.7,32.5,30.20,NNW,337,0.0,0.0,92,0.00,,,0.00,WUHU21636XXSP,2013-02-06 14:05:00,
2013-02-06 08:10:00,35.2,32.5,30.20,NNW,337,0.0,0.0,90,0.00,,,0.00,WUHU21636XXSP,2013-02-06 14:10:00,
2013-02-06 08:15:00,35.8,32.7,30.20,NNW,337,0.0,0.0,88,0.00,,,0.00,WUHU21636XXSP,2013-02-06 14:15:00,
2013-02-06 08:20:00,38.7,34.5,30.20,NNW,337,0.0,0.0,85,0.00,,,0.00,WUHU21636XXSP,2013-02-06 14:20:00,
2013-02-06 08:25:00,40.8,36.0,30.20,NNW,337,0.0,0.0,83,0.00,,,0.00,WUHU21636XXSP,2013-02-06 14:25:00,
2013-02-06 08:30:00,43.3,36.9,30.20,NNW,337,0.0,0.0,78,0.00,,,0.00,WUHU21636XXSP,2013-02-06 14:30:00,
2013-02-06 08:35:00,42.6,34.2,30.20,NNW,337,1.1,1.7,72,0.00,,,0.00,WUHU21636XXSP,2013-02-06 14:35:00,
2013-02-06 08:40:00,41.9,33.1,30.21,NNW,337,0.0,1.7,72,0.00,,,0.00,WUHU21636XXSP,2013-02-06 14:40:00,
2013-02-06 08:45:00,43.0,34.2,30.21,NNW,337,0.0,1.1,71,0.00,,,0.00,WUHU21636XXSP,2013-02-06 14:45:00,
2013-02-06 08:50:00,46.0,36.0,30.21,NNW,337,0.0,0.0,68,0.00,,,0.00,WUHU21636XXSP,2013-02-06 14:50:00,
2013-02-06 08:55:00,48.2,36.5,30.22,NNW,337,1.1,1.1,64,0.00,,,0.00,WUHU21636XXSP,2013-02-06 14:55:00,
2013-02-06 09:00:00,48.0,36.0,30.22,NNW,337,0.0,1.1,63,0.00,,,0.00,WUHU21636XXSP,2013-02-06 15:00:00,
2013-02-06 09:05:00,48.4,34.2,30.22,SSW,202,0.0,1.3,58,0.00,,,0.00,WUHU21636XXSP,2013-02-06 15:05:00,
2013-02-06 09:10:00,48.4,35.6,30.22,SE,135,0.0,1.3,61,0.00,,,0.00,WUHU21636XXSP,2013-02-06 15:10:00,
2013-02-06 09:15:00,48.0,34.9,30.22,SE,135,0.0,0.0,60,0.00,,,0.00,WUHU21636XXSP,2013-02-06 15:15:00,
2013-02-06 09:20:00,47.8,33.6,30.22,SSE,157,0.4,1.3,58,0.00,,,0.00,WUHU21636XXSP,2013-02-06 15:20:00,
2013-02-06 09:25:00,47.8,34.7,30.22,SSW,202,4.4,4.4,60,0.00,,,0.00,WUHU21636XXSP,2013-02-06 15:25:00,
2013-02-06 09:30:00,46.9,32.7,30.22,SE,135,5.8,8.7,58,0.00,,,0.00,WUHU21636XXSP,2013-02-06 15:30:00,
2013-02-06 09:35:00,46.4,33.6,30.22,East,90,0.0,8.7,61,0.00,,,0.00,WUHU21636XXSP,2013-02-06 15:35:00,
2013-02-06 09:40:00,46.0,33.3,30.22,SSE,157,1.3,5.8,61,0.00,,,0.00,WUHU21636XXSP,2013-02-06 15:40:00,
2013-02-06 09:45:00,46.6,32.9,30.22,SSE,157,3.8,3.8,59,0.00,,,0.00,WUHU21636XXSP,2013-02-06 15:45:00,
2013-02-06 09:50:00,46.8,33.1,30.22,SE,135,4.2,7.3,59,0.00,,,0.00,WUHU21636XXSP,2013-02-06 15:50:00,
2013-02-06 09:55:00,46.0,33.3,30.22,SE,135,1.7,7.3,61,0.00,,,0.00,WUHU21636XXSP,2013-02-06 15:55:00,
2013-02-06 10:00:00,46.0,32.9,30.22,SE,135,0.0,4.2,61,0.00,,,0.00,WUHU21636XXSP,2013-02-06 16:00:00,
2013-02-06 10:05:00,45.9,33.4,30.22,ESE,112,2.0,4.9,62,0.00,,,0.00,WUHU21636XXSP,2013-02-06 16:05:00,
2013-02-06 10:10:00,46.0,33.3,30.23,SE,135,4.6,4.9,61,0.00,,,0.00,WUHU21636XXSP,2013-02-06 16:10:00,
2013-02-06 10:15:00,47.8,34.2,30.23,SE,135,1.7,4.9,59,0.00,,,0.00,WUHU21636XXSP,2013-02-06 16:15:00,
2013-02-06 10:20:00,48.6,34.0,30.23,SE,135,0.8,4.6,57,0.00,,,0.00,WUHU21636XXSP,2013-02-06 16:20:00,
2013-02-06 10:25:00,49.8,34.7,30.23,SSE,157,0.0,2.0,56,0.00,,,0.00,WUHU21636XXSP,2013-02-06 16:25:00,
2013-02-06 10:30:00,50.9,34.3,30.23,SE,135,4.2,4.2,53,0.00,,,0.00,WUHU21636XXSP,2013-02-06 16:30:00,
2013-02-06 10:35:00,50.5,34.3,30.23,SSE,157,0.2,4.2,54,0.00,,,0.00,WUHU21636XXSP,2013-02-06 16:35:00,
2013-02-06 10:41:00,51.1,33.4,30.23,SSW,202,0.0,4.2,51,0.00,,,0.00,WUHU21636XXSP,2013-02-06 16:41:00,
2013-02-06 10:46:00,51.1,34.3,30.23,South,180,0.4,3.5,53,0.00,,,0.00,WUHU21636XXSP,2013-02-06 16:46:00,
2013-02-06 10:51:00,51.6,34.9,30.23,South,180,0.0,2.6,53,0.00,,,0.00,WUHU21636XXSP,2013-02-06 16:51:00,
2013-02-06 10:56:00,51.4,34.3,30.23,South,180,2.2,3.1,52,0.00,,,0.00,WUHU21636XXSP,2013-02-06 16:56:00,
2013-02-06 11:01:00,51.3,33.6,30.23,South,180,0.0,3.1,51,0.00,,,0.00,WUHU21636XXSP,2013-02-06 17:01:00,
2013-02-06 11:06:00,51.1,34.0,30.22,South,180,4.4,4.4,52,0.00,,,0.00,WUHU21636XXSP,2013-02-06 17:06:00,
2013-02-06 11:11:00,51.6,34.0,30.22,ESE,112,1.7,4.4,51,0.00,,,0.00,WUHU21636XXSP,2013-02-06 17:11:00,
2013-02-06 11:16:00,49.8,33.8,30.21,SW,225,4.2,6.2,54,0.00,,,0.00,WUHU21636XXSP,2013-02-06 17:16:00,
2013-02-06 11:21:00,50.7,34.2,30.21,SSE,157,3.8,7.3,53,0.00,,,0.00,WUHU21636XXSP,2013-02-06 17:21:00,
2013-02-06 11:26:00,50.5,34.3,30.21,SE,135,2.2,7.3,54,0.00,,,0.00,WUHU21636XXSP,2013-02-06 17:26:00,
2013-02-06 11:31:00,51.4,34.7,30.21,SSE,157,5.1,5.1,53,0.00,,,0.00,WUHU21636XXSP,2013-02-06 17:31:00,
2013-02-06 11:36:00,50.4,33.8,30.21,SSE,157,1.1,7.6,53,0.00,,,0.00,WUHU21636XXSP,2013-02-06 17:36:00,
2013-02-06 11:41:00,50.9,34.3,30.21,SE,135,0.0,7.6,53,0.00,,,0.00,WUHU21636XXSP,2013-02-06 17:41:00,
2013-02-06 11:46:00,52.0,34.7,30.21,SSE,157,3.1,3.1,52,0.00,,,0.00,WUHU21636XXSP,2013-02-06 17:46:00,
2013-02-06 11:51:00,52.5,35.2,30.21,South,180,1.5,3.1,52,0.00,,,0.00,WUHU21636XXSP,2013-02-06 17:51:00,
2013-02-06 11:56:00,51.3,34.2,30.20,SSE,157,7.1,11.4,52,0.00,,,0.00,WUHU21636XXSP,2013-02-06 17:56:00,
2013-02-06 12:01:00,50.9,34.7,30.20,SE,135,2.4,11.4,54,0.00,,,0.00,WUHU21636XXSP,2013-02-06 18:01:00,
2013-02-06 12:06:00,51.1,34.0,30.20,South,180,0.8,8.7,52,0.00,,,0.00,WUHU21636XXSP,2013-02-06 18:06:00,
2013-02-06 12:11:00,52.5,34.3,30.20,SE,135,0.8,8.7,50,0.00,,,0.00,WUHU21636XXSP,2013-02-06 18:11:00,
2013-02-06 12:16:00,52.5,34.3,30.20,South,180,3.1,7.6,50,0.00,,,0.00,WUHU21636XXSP,2013-02-06 18:16:00,
2013-02-06 12:21:00,53.1,34.9,30.20,SE,135,0.0,7.6,50,0.00,,,0.00,WUHU21636XXSP,2013-02-06 18:21:00,
2013-02-06 12:26:00,53.2,34.0,30.20,South,180,3.5,8.7,48,0.00,,,0.00,WUHU21636XXSP,2013-02-06 18:26:00,
2013-02-06 12:31:00,51.6,33.1,30.20,SW,225,3.3,8.7,51,0.00,,,0.00,WUHU21636XXSP,2013-02-06 18:31:00,
2013-02-06 12:36:00,52.9,34.7,30.20,SSE,157,3.1,8.2,50,0.00,,,0.00,WUHU21636XXSP,2013-02-06 18:36:00,
2013-02-06 12:41:00,52.3,32.5,30.19,SSE,157,0.0,12.5,47,0.00,,,0.00,WUHU21636XXSP,2013-02-06 18:41:00,
2013-02-06 12:46:00,52.3,32.5,30.19,SSW,202,3.5,12.5,50,0.00,,,0.00,WUHU21636XXSP,2013-02-06 18:46:00,
2013-02-06 12:51:00,52.5,32.7,30.19,SSW,202,4.4,8.9,47,0.00,,,0.00,WUHU21636XXSP,2013-02-06 18:51:00,
2013-02-06 12:56:00,52.7,33.4,30.19,South,180,3.1,8.9,48,0.00,,,0.00,WUHU21636XXSP,2013-02-06 18:56:00,
2013-02-06 13:01:00,52.3,33.6,30.19,SSE,157,3.5,12.7,49,0.00,,,0.00,WUHU21636XXSP,2013-02-06 19:01:00,
2013-02-06 13:06:00,52.5,33.8,30.19,SSE,157,8.0,12.7,49,0.00,,,0.00,WUHU21636XXSP,2013-02-06 19:06:00,
2013-02-06 13:11:00,52.7,34.0,30.19,SSE,157,2.4,12.0,49,0.00,,,0.00,WUHU21636XXSP,2013-02-06 19:11:00,
2013-02-06 13:16:00,52.7,34.5,30.19,SW,225,6.2,8.7,50,0.00,,,0.00,WUHU21636XXSP,2013-02-06 19:16:00,
2013-02-06 13:21:00,52.2,34.0,30.18,SE,135,0.0,10.0,51,0.00,,,0.00,WUHU21636XXSP,2013-02-06 19:21:00,
2013-02-06 13:26:00,53.2,35.4,30.18,South,180,0.0,10.0,51,0.00,,,0.00,WUHU21636XXSP,2013-02-06 19:26:00,
2013-02-06 13:31:00,52.9,35.1,30.18,SW,225,3.1,8.7,51,0.00,,,0.00,WUHU21636XXSP,2013-02-06 19:31:00,
2013-02-06 13:36:00,53.4,34.7,30.18,SSW,202,3.3,8.7,49,0.00,,,0.00,WUHU21636XXSP,2013-02-06 19:36:00,
2013-02-06 13:41:00,52.5,35.2,30.18,ESE,112,3.1,7.1,52,0.00,,,0.00,WUHU21636XXSP,2013-02-06 19:41:00,
2013-02-06 13:46:00,53.4,35.2,30.18,South,180,4.9,8.9,50,0.00,,,0.00,WUHU21636XXSP,2013-02-06 19:46:00,
2013-02-06 13:51:00,54.0,35.1,30.17,SSW,202,4.4,8.9,49,0.00,,,0.00,WUHU21636XXSP,2013-02-06 19:51:00,
2013-02-06 13:56:00,54.1,35.2,30.17,South,180,3.5,7.3,49,0.00,,,0.00,WUHU21636XXSP,2013-02-06 19:56:00,
2013-02-06 14:01:00,54.7,35.2,30.17,SSE,157,0.0,4.4,48,0.00,,,0.00,WUHU21636XXSP,2013-02-06 20:01:00,
2013-02-06 14:06:00,53.4,34.0,30.17,South,180,7.3,9.8,48,0.00,,,0.00,WUHU21636XXSP,2013-02-06 20:06:00,
2013-02-06 14:11:00,52.3,34.2,30.16,SSE,157,4.6,11.6,50,0.00,,,0.00,WUHU21636XXSP,2013-02-06 20:11:00,
2013-02-06 14:16:00,52.5,34.9,30.16,SSW,202,3.8,11.6,51,0.00,,,0.00,WUHU21636XXSP,2013-02-06 20:16:00,
2013-02-06 14:21:00,52.3,34.7,30.16,SSE,157,1.5,7.8,51,0.00,,,0.00,WUHU21636XXSP,2013-02-06 20:21:00,
2013-02-06 14:26:00,50.7,34.5,30.15,SE,135,4.4,12.7,54,0.00,,,0.00,WUHU21636XXSP,2013-02-06 20:26:00,
2013-02-06 14:31:00,49.6,33.6,30.15,SSW,202,3.5,12.7,54,0.00,,,0.00,WUHU21636XXSP,2013-02-06 20:31:00,
2013-02-06 14:36:00,48.9,34.2,30.15,SE,135,3.8,8.9,57,0.00,,,0.00,WUHU21636XXSP,2013-02-06 20:36:00,
2013-02-06 14:41:00,48.7,34.0,30.14,South,180,0.0,8.5,57,0.00,,,0.00,WUHU21636XXSP,2013-02-06 20:41:00,
2013-02-06 14:46:00,48.7,34.0,30.14,SSW,202,4.0,8.5,57,0.00,,,0.00,WUHU21636XXSP,2013-02-06 20:46:00,
2013-02-06 14:51:00,48.4,34.2,30.14,SE,135,0.0,7.8,58,0.00,,,0.00,WUHU21636XXSP,2013-02-06 20:51:00,
2013-02-06 14:56:00,48.6,34.3,30.14,SSE,157,3.1,7.8,58,0.00,,,0.00,WUHU21636XXSP,2013-02-06 20:56:00,
2013-02-06 15:01:00,48.4,34.2,30.14,SE,135,2.6,7.1,58,0.00,,,0.00,WUHU21636XXSP,2013-02-06 21:01:00,
2013-02-06 15:06:00,48.6,34.3,30.14,SE,135,0.0,7.1,58,0.00,,,0.00,WUHU21636XXSP,2013-02-06 21:06:00,
2013-02-06 15:11:00,48.7,34.0,30.14,SE,135,4.9,4.9,57,0.00,,,0.00,WUHU21636XXSP,2013-02-06 21:11:00,
2013-02-06 15:16:00,48.4,34.2,30.13,SE,135,3.5,4.9,58,0.00,,,0.00,WUHU21636XXSP,2013-02-06 21:16:00,
2013-02-06 15:21:00,48.0,33.8,30.13,SSE,157,3.8,8.7,58,0.00,,,0.00,WUHU21636XXSP,2013-02-06 21:21:00,
2013-02-06 15:26:00,47.8,34.2,30.12,South,180,1.1,8.7,59,0.00,,,0.00,WUHU21636XXSP,2013-02-06 21:26:00,
2013-02-06 15:31:00,47.8,34.2,30.12,SE,135,3.5,7.8,59,0.00,,,0.00,WUHU21636XXSP,2013-02-06 21:31:00,
2013-02-06 15:36:00,47.8,34.2,30.11,SE,135,2.6,4.0,59,0.00,,,0.00,WUHU21636XXSP,2013-02-06 21:36:00,
2013-02-06 15:41:00,47.8,34.2,30.12,SE,135,3.5,3.5,59,0.00,,,0.00,WUHU21636XXSP,2013-02-06 21:41:00,
2013-02-06 15:46:00,47.5,33.8,30.12,South,180,2.4,8.2,59,0.00,,,0.00,WUHU21636XXSP,2013-02-06 21:46:00,
2013-02-06 15:51:00,47.5,33.8,30.11,SE,135,4.4,8.2,59,0.00,,,0.00,WUHU21636XXSP,2013-02-06 21:51:00,
2013-02-06 15:56:00,47.3,33.6,30.11,SE,135,0.4,6.2,59,0.00,,,0.00,WUHU21636XXSP,2013-02-06 21:56:00,
2013-02-06 16:01:00,47.5,34.3,30.10,ESE,112,4.4,6.2,60,0.00,,,0.00,WUHU21636XXSP,2013-02-06 22:01:00,
2013-02-06 16:06:00,47.7,34.9,30.11,ESE,112,6.9,7.6,61,0.00,,,0.00,WUHU21636XXSP,2013-02-06 22:06:00,
2013-02-06 16:11:00,47.3,33.6,30.11,ESE,112,5.3,11.1,59,0.00,,,0.00,WUHU21636XXSP,2013-02-06 22:11:00,
2013-02-06 16:16:00,46.9,33.8,30.11,SE,135,9.8,14.7,60,0.00,,,0.00,WUHU21636XXSP,2013-02-06 22:16:00,
2013-02-06 16:21:00,46.8,34.0,30.11,SE,135,4.6,14.7,61,0.00,,,0.00,WUHU21636XXSP,2013-02-06 22:21:00,
2013-02-06 16:26:00,46.6,33.8,30.11,SE,135,0.8,9.8,62,0.00,,,0.00,WUHU21636XXSP,2013-02-06 22:26:00,
2013-02-06 16:31:00,46.4,34.3,30.11,SE,135,3.8,5.1,63,0.00,,,0.00,WUHU21636XXSP,2013-02-06 22:31:00,
2013-02-06 16:36:00,46.2,34.5,30.10,SE,135,4.6,7.1,64,0.00,,,0.00,WUHU21636XXSP,2013-02-06 22:36:00,
2013-02-06 16:41:00,46.0,34.3,30.11,SE,135,2.0,11.6,64,0.00,,,0.00,WUHU21636XXSP,2013-02-06 22:41:00,
2013-02-06 16:46:00,45.9,33.8,30.10,SE,135,3.1,11.6,63,0.00,,,0.00,WUHU21636XXSP,2013-02-06 22:46:00,
2013-02-06 16:51:00,45.7,34.2,30.10,ESE,112,6.0,12.0,64,0.00,,,0.00,WUHU21636XXSP,2013-02-06 22:51:00,
2013-02-06 16:56:00,45.7,34.2,30.11,SSE,157,3.1,12.0,65,0.00,,,0.00,WUHU21636XXSP,2013-02-06 22:56:00,
2013-02-06 17:01:00,45.3,34.2,30.11,SE,135,1.5,9.3,65,0.00,,,0.00,WUHU21636XXSP,2013-02-06 23:01:00,
2013-02-06 17:06:00,45.0,33.8,30.11,SE,135,0.0,9.3,65,0.00,,,0.00,WUHU21636XXSP,2013-02-06 23:06:00,
2013-02-06 17:11:00,44.8,33.6,30.10,ESE,112,0.0,2.0,65,0.00,,,0.00,WUHU21636XXSP,2013-02-06 23:11:00,
2013-02-06 17:16:00,44.4,33.3,30.10,SSE,157,0.0,2.0,65,0.00,,,0.00,WUHU21636XXSP,2013-02-06 23:16:00,
2013-02-06 17:21:00,44.1,33.3,30.11,SE,135,0.0,1.7,66,0.00,,,0.00,WUHU21636XXSP,2013-02-06 23:21:00,
2013-02-06 17:26:00,43.3,33.1,30.11,SSE,157,0.0,0.8,67,0.00,,,0.00,WUHU21636XXSP,2013-02-06 23:26:00,
2013-02-06 17:31:00,42.8,32.5,30.11,SSE,157,0.0,0.0,67,0.00,,,0.00,WUHU21636XXSP,2013-02-06 23:31:00,
2013-02-06 17:36:00,42.4,32.9,30.11,SE,135,2.6,6.2,69,0.00,,,0.00,WUHU21636XXSP,2013-02-06 23:36:00,
2013-02-06 17:41:00,42.4,33.4,30.11,SE,135,3.1,6.2,70,0.00,,,0.00,WUHU21636XXSP,2013-02-06 23:41:00,
2013-02-06 17:46:00,42.1,33.3,30.11,SE,135,0.0,3.1,71,0.00,,,0.00,WUHU21636XXSP,2013-02-06 23:46:00,
2013-02-06 17:51:00,41.7,32.9,30.11,SE,135,0.0,3.1,71,0.00,,,0.00,WUHU21636XXSP,2013-02-06 23:51:00,
2013-02-06 17:56:00,41.7,33.3,30.12,SE,135,1.3,4.9,72,0.00,,,0.00,WUHU21636XXSP,2013-02-06 23:56:00,
2013-02-06 18:01:00,41.5,33.1,30.11,SE,135,0.6,4.9,72,0.00,,,0.00,WUHU21636XXSP,2013-02-07 00:01:00,
2013-02-06 18:06:00,41.5,33.1,30.11,SE,135,1.7,1.7,71,0.00,,,0.00,WUHU21636XXSP,2013-02-07 00:06:00,
2013-02-06 18:11:00,41.2,32.7,30.12,SE,135,2.4,2.4,72,0.00,,,0.00,WUHU21636XXSP,2013-02-07 00:11:00,
2013-02-06 18:16:00,41.2,32.7,30.12,SE,135,2.6,2.6,71,0.00,,,0.00,WUHU21636XXSP,2013-02-07 00:16:00,
2013-02-06 18:21:00,41.2,32.7,30.11,SE,135,2.4,2.6,71,0.00,,,0.00,WUHU21636XXSP,2013-02-07 00:21:00,
2013-02-06 18:26:00,41.4,32.5,30.11,SE,135,0.0,2.6,71,0.00,,,0.00,WUHU21636XXSP,2013-02-07 00:26:00,
2013-02-06 18:31:00,41.2,32.4,30.11,SE,135,1.7,2.6,71,0.00,,,0.00,WUHU21636XXSP,2013-02-07 00:31:00,
2013-02-06 18:36:00,41.2,32.7,30.11,SE,135,4.2,4.2,72,0.00,,,0.00,WUHU21636XXSP,2013-02-07 00:36:00,
2013-02-06 18:41:00,41.2,32.7,30.11,SE,135,0.0,4.2,72,0.00,,,0.00,WUHU21636XXSP,2013-02-07 00:41:00,
2013-02-06 18:46:00,40.8,32.7,30.11,ESE,112,2.2,4.2,73,0.00,,,0.00,WUHU21636XXSP,2013-02-07 00:46:00,
2013-02-06 18:51:00,40.6,32.9,30.11,SE,135,3.1,3.1,74,0.00,,,0.00,WUHU21636XXSP,2013-02-07 00:51:00,
2013-02-06 18:56:00,40.6,32.9,30.11,SSE,157,1.7,3.5,75,0.00,,,0.00,WUHU21636XXSP,2013-02-07 00:56:00,
2013-02-06 19:01:00,40.3,33.3,30.11,SSE,157,0.0,3.5,76,0.00,,,0.00,WUHU21636XXSP,2013-02-07 01:01:00,
2013-02-06 19:06:00,39.9,32.9,30.11,SSE,157,0.0,1.7,76,0.00,,,0.00,WUHU21636XXSP,2013-02-07 01:06:00,
2013-02-06 19:11:00,39.7,32.7,30.11,SSE,157,2.4,2.4,77,0.00,,,0.00,WUHU21636XXSP,2013-02-07 01:11:00,
2013-02-06 19:16:00,39.4,33.1,30.11,SE,135,0.0,3.3,78,0.00,,,0.00,WUHU21636XXSP,2013-02-07 01:16:00,
2013-02-06 19:21:00,39.2,32.9,30.11,SE,135,0.0,3.3,78,0.00,,,0.00,WUHU21636XXSP,2013-02-07 01:21:00,
2013-02-06 19:26:00,38.8,32.5,30.10,SE,135,0.0,0.0,78,0.00,,,0.00,WUHU21636XXSP,2013-02-07 01:26:00,
2013-02-06 19:31:00,38.1,32.2,30.10,SE,135,0.0,0.0,79,0.00,,,0.00,WUHU21636XXSP,2013-02-07 01:31:00,
2013-02-06 19:36:00,38.1,32.2,30.10,SE,135,0.0,0.4,79,0.00,,,0.00,WUHU21636XXSP,2013-02-07 01:36:00,
2013-02-06 19:41:00,37.8,31.8,30.10,SE,135,0.0,2.2,79,0.00,,,0.00,WUHU21636XXSP,2013-02-07 01:41:00,
2013-02-06 19:46:00,37.6,32.0,30.10,SE,135,0.0,2.2,80,0.00,,,0.00,WUHU21636XXSP,2013-02-07 01:46:00,
2013-02-06 19:51:00,37.4,31.8,30.10,SSE,157,0.2,0.2,80,0.00,,,0.00,WUHU21636XXSP,2013-02-07 01:51:00,
2013-02-06 19:56:00,37.2,31.6,30.09,SE,135,0.0,0.2,81,0.00,,,0.00,WUHU21636XXSP,2013-02-07 01:56:00,
2013-02-06 20:01:00,37.6,32.2,30.09,SE,135,1.7,2.6,80,0.00,,,0.00,WUHU21636XXSP,2013-02-07 02:01:00,
2013-02-06 20:06:00,37.8,32.2,30.09,ESE,112,4.0,4.0,80,0.00,,,0.00,WUHU21636XXSP,2013-02-07 02:06:00,
2013-02-06 20:11:00,37.6,32.0,30.09,SE,135,2.2,7.8,80,0.00,,,0.00,WUHU21636XXSP,2013-02-07 02:11:00,
2013-02-06 20:16:00,37.2,31.6,30.09,SE,135,0.0,7.8,80,0.00,,,0.00,WUHU21636XXSP,2013-02-07 02:16:00,
2013-02-06 20:21:00,37.0,31.5,30.10,SE,135,0.0,2.2,80,0.00,,,0.00,WUHU21636XXSP,2013-02-07 02:21:00,
2013-02-06 20:26:00,36.9,31.3,30.09,SE,135,2.6,3.5,80,0.00,,,0.00,WUHU21636XXSP,2013-02-07 02:26:00,
2013-02-06 20:31:00,36.7,31.3,30.09,ESE,112,2.0,3.5,81,0.00,,,0.00,WUHU21636XXSP,2013-02-07 02:31:00,
2013-02-06 20:36:00,36.7,31.3,30.09,SE,135,2.9,4.0,81,0.00,,,0.00,WUHU21636XXSP,2013-02-07 02:36:00,
2013-02-06 20:41:00,36.5,31.1,30.09,SE,135,0.6,7.6,81,0.00,,,0.00,WUHU21636XXSP,2013-02-07 02:41:00,
2013-02-06 20:46:00,36.3,30.9,30.09,SE,135,3.5,7.6,81,0.00,,,0.00,WUHU21636XXSP,2013-02-07 02:46:00,
2013-02-06 20:51:00,36.3,30.9,30.09,SE,135,0.0,9.1,81,0.00,,,0.00,WUHU21636XXSP,2013-02-07 02:51:00,
2013-02-06 20:56:00,36.3,30.9,30.09,SE,135,0.0,9.1,81,0.00,,,0.00,WUHU21636XXSP,2013-02-07 02:56:00,
2013-02-06 21:01:00,36.3,30.9,30.09,SE,135,4.0,7.1,81,0.00,,,0.00,WUHU21636XXSP,2013-02-07 03:01:00,
2013-02-06 21:06:00,36.3,31.3,30.09,ESE,112,2.0,4.0,82,0.00,,,0.00,WUHU21636XXSP,2013-02-07 03:06:00,
2013-02-06 21:11:00,36.5,31.5,30.09,SE,135,0.8,9.1,82,0.00,,,0.00,WUHU21636XXSP,2013-02-07 03:11:00,
2013-02-06 21:16:00,36.5,31.5,30.09,ESE,112,4.0,9.1,82,0.00,,,0.00,WUHU21636XXSP,2013-02-07 03:16:00,
2013-02-06 21:21:00,36.5,31.5,30.09,SE,135,3.3,8.5,82,0.00,,,0.00,WUHU21636XXSP,2013-02-07 03:21:00,
2013-02-06 21:26:00,36.5,31.5,30.09,East,90,3.8,8.0,82,0.00,,,0.00,WUHU21636XXSP,2013-02-07 03:26:00,
2013-02-06 21:31:00,36.7,31.6,30.09,SE,135,0.8,8.0,82,0.00,,,0.00,WUHU21636XXSP,2013-02-07 03:31:00,
2013-02-06 21:36:00,36.5,31.5,30.09,SE,135,0.0,3.8,82,0.00,,,0.00,WUHU21636XXSP,2013-02-07 03:36:00,
2013-02-06 21:41:00,36.5,31.6,30.09,SSE,157,0.0,3.5,83,0.00,,,0.00,WUHU21636XXSP,2013-02-07 03:41:00,
2013-02-06 21:46:00,36.7,31.8,30.09,SE,135,4.4,4.4,83,0.00,,,0.00,WUHU21636XXSP,2013-02-07 03:46:00,
2013-02-06 21:51:00,36.7,31.8,30.09,SE,135,3.1,4.4,83,0.00,,,0.00,WUHU21636XXSP,2013-02-07 03:51:00,
2013-02-06 21:56:00,36.7,31.8,30.09,SE,135,0.0,4.4,83,0.00,,,0.00,WUHU21636XXSP,2013-02-07 03:56:00,
2013-02-06 22:01:00,36.7,31.8,30.09,SSE,157,3.8,3.8,83,0.00,,,0.00,WUHU21636XXSP,2013-02-07 04:01:00,
2013-02-06 22:06:00,36.7,31.8,30.09,SE,135,2.2,3.8,83,0.00,,,0.00,WUHU21636XXSP,2013-02-07 04:06:00,
2013-02-06 22:11:00,36.5,31.6,30.09,SE,135,1.1,3.8,83,0.00,,,0.00,WUHU21636XXSP,2013-02-07 04:11:00,
2013-02-06 22:16:00,36.3,31.5,30.09,SE,135,0.0,2.2,83,0.00,,,0.00,WUHU21636XXSP,2013-02-07 04:16:00,
2013-02-06 22:21:00,36.1,31.3,30.09,SE,135,0.8,1.1,83,0.00,,,0.00,WUHU21636XXSP,2013-02-07 04:21:00,
2013-02-06 22:26:00,36.0,31.1,30.09,SE,135,0.0,0.8,83,0.00,,,0.00,WUHU21636XXSP,2013-02-07 04:26:00,
2013-02-06 22:31:00,35.8,30.9,30.09,SSE,157,0.0,1.7,84,0.00,,,0.00,WUHU21636XXSP,2013-02-07 04:31:00,
2013-02-06 22:36:00,35.8,30.9,30.09,SSE,157,0.0,1.7,84,0.00,,,0.00,WUHU21636XXSP,2013-02-07 04:36:00,
2013-02-06 22:41:00,36.0,31.5,30.09,SE,135,0.0,0.0,84,0.00,,,0.00,WUHU21636XXSP,2013-02-07 04:41:00,
2013-02-06 22:46:00,36.5,32.0,30.09,SSE,157,0.0,0.6,84,0.00,,,0.00,WUHU21636XXSP,2013-02-07 04:46:00,
2013-02-06 22:51:00,37.2,32.4,30.09,SSE,157,5.1,9.1,83,0.00,,,0.00,WUHU21636XXSP,2013-02-07 04:51:00,
2013-02-06 22:56:00,37.2,32.4,30.09,South,180,0.4,9.1,82,0.00,,,0.00,WUHU21636XXSP,2013-02-07 04:56:00,
2013-02-06 23:00:00,37.2,32.4,30.09,South,180,0.0,9.1,82,0.00,,,0.00,WUHU21636XXSP,2013-02-07 05:00:00,
2013-02-06 23:02:00,37.2,32.4,30.09,SE,135,0.0,2.2,82,0.00,,,0.00,WUHU21636XXSP,2013-02-07 05:02:00,
2013-02-06 23:07:00,37.2,32.4,30.09,SSE,157,0.0,3.5,82,0.00,,,0.00,WUHU21636XXSP,2013-02-07 05:07:00,
2013-02-06 23:12:00,37.0,32.0,30.09,SE,135,0.0,3.5,82,0.00,,,0.00,WUHU21636XXSP,2013-02-07 05:12:00,
2013-02-06 23:17:00,37.0,32.0,30.09,SSE,157,0.0,0.0,82,0.00,,,0.00,WUHU21636XXSP,2013-02-07 05:17:00,
2013-02-06 23:22:00,37.0,32.0,30.09,SSE,157,0.0,0.0,83,0.00,,,0.00,WUHU21636XXSP,2013-02-07 05:22:00,
2013-02-06 23:27:00,36.7,31.6,30.10,SSE,157,0.0,0.0,83,0.00,,,0.00,WUHU21636XXSP,2013-02-07 05:27:00,
2013-02-06 23:32:00,36.7,31.6,30.09,South,180,0.0,2.0,83,0.00,,,0.00,WUHU21636XXSP,2013-02-07 05:32:00,
2013-02-06 23:37:00,36.5,31.6,30.09,SSE,157,0.0,2.0,83,0.00,,,0.00,WUHU21636XXSP,2013-02-07 05:37:00,
2013-02-06 23:42:00,36.5,31.6,30.09,SSE,157,0.0,3.3,84,0.00,,,0.00,WUHU21636XXSP,2013-02-07 05:42:00,
2013-02-06 23:47:00,36.3,31.8,30.09,SE,135,0.0,3.3,84,0.00,,,0.00,WUHU21636XXSP,2013-02-07 05:47:00,
2013-02-06 23:52:00,36.1,31.3,30.09,SE,135,2.4,4.6,83,0.00,,,0.00,WUHU21636XXSP,2013-02-07 05:52:00,
2013-02-06 23:57:00,36.1,31.3,30.08,ESE,112,0.0,4.6,84,0.00,,,0.00,WUHU21636XXSP,2013-02-07 05:57:00,